Wind_Speed
12 10 10 9 8 7 6 6 5 5 6 6 6 6 6 6 6 7 7 8 9 10 10 11 12 12 11 11 10 9 8 8 8 9 9 8 6 6 5 5 5 5 3 2 2 3 2 2 5 9 10 11 13 12 9 9 9 11 13 13 14 14 15
12 10 11 10 9 7 7 7 7 5 5 6 6 6 6 7 8 9 9 10 11 11 11 11 12 11 12 11 11 11 9 9 9 8 8 8 7 6 5 5 5 4 4 3 3 4 2 2 3 3 8 14 15 13 12 12 13 13 14 15 15 15 14
13 12 12 11 10 8 8 8 8 7 6 6 6 6 6 7 7 8 8 9 10 10 10 11 11 12 12 12 12 11 11 10 10 9 8 8 6 5 5 5 5 5 4 3 4 6 4 3 3 3 6 9 9 13 17 15 16 16 15 14 14 14 14
15 15 14 13 12 11 10 10 10 9 8 7 6 6 6 6 6 5 6 7 8 8 9 10 11 12 12 12 12 12 12 12 12 11 10 9 7 6 5 5 5 5 4 2 3 5 3 2 4 4 5 7 9 12 14 14 16 16 14 13 13 14 15
17 18 17 16 15 13 12 11 11 11 10 9 7 6 5 5 4 3 3 4 5 7 8 10 11 11 11 11 12 13 13 13 12 12 12 11 10 9 7 7 6 5 4 3 3 3 3 3 4 4 5 8 8 9 13 15 16 15 14 14 14 14 14
19 19 19 17 16 15 13 13 12 12 11 10 9 7 6 5 4 2 1 1 3 5 7 8 8 9 10 11 12 12 12 12 11 11 11 11 11 10 9 9 8 8 6 5 4 4 4 4 4 4 5 6 6 9 14 15 14 14 16 15 13 13 13
21 21 20 19 17 16 15 14 13 12 11 10 10 9 7 5 4 3 2 1 1 3 5 6 6 7 8 10 12 12 12 12 11 11 10 10 10 10 10 9 9 9 9 7 6 5 5 5 5 5 5 6 7 9 10 12 12 12 14 14 14 14 14
23 22 21 20 19 17 16 15 14 13 11 9 9 10 9 7 6 5 4 2 0 2 4 4 4 5 6 8 10 10 11 11 10 10 10 10 11 10 10 10 10 10 9 9 8 7 6 6 6 6 6 5 6 6 6 8 11 12 14 16 17 16 13
25 24 23 22 21 19 18 17 15 14 12 10 10 10 10 9 8 7 6 4 1 1 2 3 3 3 5 7 8 9 9 9 9 10 10 10 11 12 12 12 11 11 10 9 9 9 8 7 8 8 7 6 6 5 4 5 7 9 12 13 13 13 11
27 26 25 24 22 21 20 19 17 15 14 13 12 12 11 10 10 9 7 5 3 2 2 1 1 2 4 5 6 8 8 8 8 8 9 10 11 12 12 12 12 11 10 10 9 9 9 10 10 10 9 8 7 5 4 5 5 5 9 11 11 12 13
30 29 27 25 24 22 22 21 20 19 17 15 14 14 13 12 12 11 9 7 5 3 2 1 1 1 3 4 5 6 7 7 7 7 8 9 10 11 12 12 12 12 11 11 11 10 10 10 11 11 12 11 10 8 6 5 6 7 9 11 11 13 16
31 30 29 27 26 25 24 23 22 21 19 18 17 16 15 15 14 12 10 8 6 4 2 2 2 2 2 3 4 5 5 5 5 6 7 8 9 10 11 11 11 12 12 12 12 12 12 12 12 12 12 12 12 12 10 8 7 8 9 10 12 15 17
32 32 30 29 28 28 27 25 24 23 21 20 19 18 17 16 15 13 11 9 7 5 3 3 2 1 1 2 3 4 4 4 4 4 5 7 9 10 11 12 12 12 12 12 12 13 13 13 13 13 12 12 12 13 14 11 9 11 15 15 15 16 17
34 33 32 31 31 30 29 28 27 25 23 22 21 20 19 17 16 14 12 10 8 6 4 3 2 1 1 2 4 5 5 6 6 6 7 8 9 11 12 13 14 14 15 15 14 13 13 13 13 13 13 13 13 12 13 13 11 13 18 18 15 17 16
36 35 34 33 33 32 31 30 29 27 25 24 22 21 20 18 16 15 13 11 8 6 5 3 2 2 3 4 6 7 7 7 7 7 8 9 10 11 13 15 16 17 18 18 17 15 13 11 11 12 12 13 14 12 11 12 12 12 17 20 18 18 17
36 35 36 36 36 35 34 32 31 29 26 24 23 21 20 19 17 15 13 11 8 6 5 4 3 4 5 6 7 8 8 8 7 7 8 9 11 13 15 17 19 20 21 21 20 17 14 12 12 13 14 13 14 14 12 11 11 10 14 19 19 17 16
36 36 36 38 38 37 35 34 32 30 27 24 23 22 20 18 17 15 13 11 9 7 6 5 5 6 6 7 8 8 8 7 7 8 9 11 12 14 16 18 20 21 21 21 21 20 18 17 16 16 17 16 16 16 16 14 14 13 13 17 20 19 18
36 37 38 39 39 39 37 35 32 29 26 24 23 22 20 19 17 15 13 11 9 8 6 6 6 7 7 8 9 8 7 8 9 10 11 13 14 15 17 18 20 20 19 19 20 20 20 20 20 19 19 19 18 18 19 18 18 18 16 18 22 23 21
36 38 39 39 39 39 37 35 32 29 27 25 23 22 21 19 17 15 13 11 9 8 7 7 7 7 7 7 7 7 8 9 11 12 14 15 16 17 18 19 20 19 18 18 18 19 19 20 20 21 20 20 19 19 20 20 20 20 19 20 23 25 24
33 34 35 36 37 38 38 37 33 30 28 25 24 23 22 19 17 15 13 11 10 9 8 8 7 6 5 6 6 8 9 11 13 15 16 17 18 19 20 20 20 20 19 19 19 19 19 19 19 20 20 20 20 20 20 21 21 21 20 21 22 24 24
28 29 30 31 32 34 35 34 33 31 29 26 25 24 22 19 17 15 13 11 10 9 9 8 6 5 4 5 7 9 11 14 16 18 19 20 20 21 21 21 21 21 20 20 20 20 20 20 20 20 20 20 20 21 21 21 21 21 21 21 22 23 24
25 26 27 29 30 30 29 28 29 28 27 25 24 23 21 19 17 15 13 11 11 10 9 7 5 4 4 6 8 11 13 15 18 20 21 22 23 23 23 22 22 22 21 21 22 22 22 21 21 22 22 21 21 22 22 22 21 20 20 20 20 21 22
24 25 27 29 31 30 28 28 27 26 25 25 24 22 19 17 16 14 14 13 12 11 9 7 5 4 5 7 10 12 15 17 18 20 22 23 24 24 24 23 23 23 23 23 23 24 24 24 24 24 24 24 24 23 23 23 21 20 19 18 18 18 19
23 25 26 28 29 28 27 28 29 29 28 26 24 21 18 17 16 15 14 14 13 11 9 6 4 4 6 8 11 14 16 18 19 20 21 22 24 25 24 24 25 24 24 24 25 25 25 25 25 25 25 25 25 25 25 24 23 21 19 17 18 18 18
24 25 25 26 27 27 26 28 30 31 30 27 25 22 19 17 17 16 16 15 13 10 7 5 4 5 7 10 13 16 18 19 21 21 22 23 23 24 25 26 25 25 25 25 25 25 24 25 25 25 25 25 25 25 25 26 26 24 22 20 19 19 20
24 25 24 24 25 25 26 29 31 31 30 28 26 23 20 18 18 17 16 14 12 8 5 4 5 6 9 11 14 18 21 22 22 23 23 23 24 24 25 26 26 26 25 25 24 24 25 26 26 26 26 26 27 27 26 27 28 28 28 27 25 24 24
24 24 23 23 23 25 28 31 32 30 29 27 25 23 21 19 18 17 15 12 9 6 4 4 5 7 10 13 17 20 23 24 24 24 24 24 25 25 26 26 27 27 26 26 25 25 26 27 27 28 28 28 28 29 28 28 28 28 29 31 31 32 31
23 23 22 22 24 27 29 31 31 30 28 26 23 21 21 20 18 15 12 9 6 4 3 4 6 9 12 16 20 23 26 26 26 25 25 25 25 26 25 25 27 27 27 27 26 25 26 26 27 28 29 29 30 30 30 30 29 28 29 30 33 35 35
22 22 22 23 26 28 31 32 31 30 27 23 21 20 20 20 17 13 9 6 3 2 3 5 7 10 14 18 22 26 28 28 27 26 27 27 26 26 25 25 25 26 26 26 26 26 25 25 26 28 29 31 31 31 31 30 29 29 30 30 32 34 34
23 23 24 25 28 31 33 33 31 29 27 24 23 22 20 18 14 9 6 3 2 2 4 5 8 11 14 19 24 27 28 28 27 28 28 27 27 26 25 24 24 24 25 25 25 25 24 24 26 28 29 31 31 31 31 29 28 29 29 30 31 32 33
24 24 25 26 29 32 34 34 32 29 27 26 24 22 18 14 10 6 3 2 1 3 4 6 9 12 15 20 25 27 28 27 27 28 29 28 27 25 24 24 22 22 24 24 24 25 24 25 27 29 29 30 31 31 30 28 28 29 27 28 29 30 31
25 25 25 25 25 24 25 28 30 28 27 26 23 19 15 11 8 5 3 1 2 3 6 8 10 12 15 21 25 27 27 27 27 28 28 27 26 24 23 24 23 23 24 26 27 28 28 28 30 30 30 30 32 31 27 25 26 26 26 27 28 28 30
25 26 27 28 26 23 21 23 24 24 23 22 19 16 12 8 6 4 2 1 3 5 8 10 11 13 16 21 25 27 26 27 28 28 26 26 26 25 24 24 25 25 27 28 29 29 30 30 31 32 31 31 33 32 28 25 25 25 26 27 27 27 29
26 28 30 31 32 30 26 24 22 19 18 17 15 13 9 6 4 2 1 3 5 7 9 11 13 15 18 22 26 27 26 27 28 27 26 26 26 25 24 24 25 27 28 29 29 30 30 30 31 33 34 34 35 35 33 32 31 29 29 29 28 28 28
30 32 32 32 31 29 26 23 19 17 16 15 14 12 8 5 2 0 2 4 7 9 11 13 15 17 19 23 26 27 27 27 27 26 27 27 25 24 25 25 26 27 28 29 30 31 32 32 33 34 36 36 37 37 37 38 36 33 31 30 29 28 28
36 35 33 30 28 26 24 22 18 17 16 15 13 11 7 4 1 2 4 6 9 11 12 14 16 18 21 24 27 28 27 27 27 26 27 27 25 25 26 26 26 28 30 32 33 34 35 35 36 36 37 38 38 38 38 38 36 34 34 32 30 29 29
36 34 32 30 28 25 23 21 19 17 14 12 10 8 5 1 2 5 8 10 12 13 13 15 17 19 22 25 28 29 28 28 29 28 28 27 26 25 26 27 29 32 34 35 36 37 37 38 38 39 39 40 40 39 39 37 34 33 33 32 30 30 30
Wind_Direction
185 174 169 169 164 162 159 157 154 138 128 121 115 104 91 85 81 83 83 80 76 71 67 65 63 59 53 52 48 47 53 53 54 62 64 62 59 55 54 58 66 69 59 5 316 289 289 281 301 318 325 326 323 319 317 320 328 330 323 315 307 298 290
190 179 176 178 176 176 173 169 167 160 148 137 127 112 97 92 88 89 87 79 70 62 58 55 50 44 39 36 37 37 40 47 51 53 59 60 54 47 34 26 33 43 55 59 5 331 296 281 301 315 321 323 321 317 314 311 313 316 317 316 312 308 303
193 188 185 186 187 189 186 176 172 165 152 141 133 122 110 100 94 95 88 72 61 53 47 43 36 32 33 34 36 36 38 43 46 47 53 57 55 49 39 32 29 31 51 67 19 358 337 298 298 302 317 325 323 313 313 314 314 310 310 312 311 310 307
198 195 194 193 194 197 193 183 176 171 161 149 138 127 119 111 104 99 82 65 54 46 40 33 30 31 37 42 46 47 46 46 46 45 47 49 49 48 43 40 42 48 56 48 11 360 348 321 318 316 317 321 313 302 306 315 316 312 311 310 310 311 312
206 203 202 201 199 199 195 189 184 178 170 163 155 144 135 131 124 104 76 58 43 39 37 31 29 33 39 45 51 52 50 48 46 43 43 42 40 39 39 37 35 38 35 18 3 349 331 316 313 304 304 315 308 292 302 314 315 314 312 308 308 311 315
215 212 211 209 207 205 200 197 194 188 182 178 173 166 158 154 154 147 117 64 31 32 34 30 31 36 39 44 47 46 43 42 39 35 35 35 33 30 29 28 25 23 18 6 348 333 324 312 301 293 296 303 294 292 305 312 313 312 306 303 309 314 316
220 218 216 216 215 211 209 208 206 201 198 192 183 177 176 179 191 204 200 181 31 26 25 24 34 43 45 46 43 38 35 33 31 28 27 27 26 24 20 16 15 14 11 7 352 333 323 309 294 292 300 299 285 285 297 301 302 301 297 298 305 307 308
225 222 221 222 221 218 216 216 215 213 212 206 194 189 191 198 209 212 208 212 331 15 8 11 31 49 53 50 44 37 34 33 30 28 25 22 19 17 15 10 6 3 360 358 352 343 334 320 307 299 299 300 291 281 282 288 284 278 282 293 301 302 303
228 225 224 224 224 224 223 223 222 220 220 217 207 202 203 208 213 212 212 218 225 314 334 355 19 40 50 48 41 35 31 30 29 26 23 20 15 10 6 3 359 356 351 347 342 338 334 328 323 317 304 295 292 290 288 280 272 272 281 293 302 301 299
229 228 228 228 228 227 227 229 228 226 225 222 217 213 211 211 211 212 214 217 220 254 299 340 29 46 49 40 31 28 26 25 24 20 17 14 11 6 2 358 353 350 348 343 337 333 329 323 319 317 311 300 291 289 294 286 273 274 282 287 290 293 297
230 232 232 233 233 232 231 230 229 228 227 225 222 218 214 211 211 213 215 213 218 236 249 201 153 99 58 39 24 20 19 18 19 14 9 7 5 2 1 359 355 350 346 342 337 333 329 325 320 315 311 306 296 284 280 289 288 278 278 284 284 290 301
233 234 235 236 236 236 235 233 230 230 228 226 225 220 215 213 212 214 215 215 222 226 213 185 165 122 70 39 20 14 11 8 9 9 4 359 355 352 351 353 353 351 346 341 336 332 327 325 323 318 313 310 304 295 285 282 287 279 275 288 294 294 300
235 236 237 238 239 240 239 237 234 234 231 227 226 222 219 216 215 216 219 223 229 230 215 194 173 123 62 17 360 357 351 347 348 349 344 338 336 336 338 340 341 342 340 335 332 330 325 321 319 317 315 311 306 304 297 287 283 284 284 289 293 292 295
236 237 238 239 241 243 242 241 239 237 235 230 226 223 220 219 219 222 226 231 235 238 228 211 197 230 314 328 334 335 331 328 326 324 324 328 333 337 337 337 336 334 332 328 325 323 321 317 314 310 309 308 304 303 301 294 288 290 293 295 295 296 301
237 237 237 239 241 242 243 243 241 239 236 232 226 224 222 221 222 226 231 236 240 242 238 229 234 268 299 313 323 328 326 323 322 322 326 331 334 335 333 331 330 330 326 321 317 316 316 314 312 308 306 306 303 301 301 298 295 293 295 298 300 302 305
238 238 237 237 240 242 243 242 241 240 237 232 226 223 222 221 222 227 233 238 242 242 241 243 259 283 296 307 318 324 324 323 323 323 326 328 329 328 327 327 326 325 322 316 310 306 305 302 303 306 304 303 302 300 299 300 300 297 296 298 301 303 304
237 238 239 238 239 241 242 242 240 239 236 230 224 220 219 219 221 225 229 235 239 240 245 257 276 289 293 305 318 322 320 316 316 318 320 322 323 323 323 323 322 322 319 313 307 300 296 295 297 299 300 299 299 298 297 297 297 297 298 298 298 299 301
235 236 239 239 239 240 240 240 238 236 232 227 222 216 213 214 217 222 225 228 231 234 246 261 274 282 292 305 312 311 308 306 309 313 316 317 318 319 319 318 318 318 314 308 304 299 295 294 295 295 295 296 295 295 295 294 293 293 292 292 294 296 299
235 236 238 238 238 238 237 237 234 231 227 223 218 214 212 212 215 218 219 219 221 228 239 251 261 272 286 298 301 300 301 304 306 308 309 312 314 314 314 314 313 313 308 303 300 298 296 294 293 292 292 292 292 292 291 291 292 291 288 285 288 292 294
238 238 238 238 238 237 235 233 230 226 223 219 215 211 209 210 213 214 215 214 218 227 234 239 246 257 271 282 290 298 302 304 306 307 309 311 312 312 311 310 309 308 304 300 297 297 296 295 293 291 290 289 289 288 287 288 289 288 285 282 282 284 288
244 241 241 241 240 238 235 232 227 221 215 211 211 209 207 207 209 209 211 214 219 223 224 224 226 234 253 274 288 296 302 306 309 310 311 311 310 309 308 307 306 303 300 298 296 295 294 293 291 289 287 287 287 287 286 285 284 282 280 277 276 278 282
248 245 245 244 243 240 236 232 225 216 209 206 206 206 206 206 206 205 206 211 214 212 207 204 206 226 255 282 297 304 308 310 311 311 310 308 308 307 305 304 302 300 298 295 293 292 290 288 286 284 284 285 285 285 284 282 280 278 276 274 273 275 277
248 247 247 247 245 239 231 224 217 210 206 204 201 201 202 202 203 206 207 205 202 197 195 199 212 247 285 305 314 317 318 316 314 311 309 307 306 304 303 302 300 298 297 295 293 291 288 286 284 281 281 281 280 279 278 277 275 273 272 272 270 270 272
250 250 248 246 243 235 224 216 210 204 200 197 196 196 196 198 204 208 205 198 192 192 197 209 237 282 311 325 330 331 328 323 318 313 309 306 304 303 302 300 299 299 298 296 295 293 291 288 285 282 280 277 275 274 272 271 271 270 268 268 268 267 265
252 251 249 244 239 230 220 211 203 196 191 190 191 190 192 201 204 200 195 190 188 192 202 226 268 304 323 333 337 337 334 330 323 316 311 306 303 302 300 299 298 296 296 296 297 295 292 289 287 284 282 279 275 272 268 267 268 268 267 267 267 264 261
253 250 247 241 231 220 211 203 196 190 186 188 189 186 189 197 196 191 189 186 185 192 210 250 288 314 328 334 338 338 337 334 326 319 313 308 304 302 299 298 296 294 294 295 294 293 291 289 287 285 282 279 276 272 269 266 264 265 266 266 266 263 262
254 248 242 232 220 211 204 197 191 187 185 186 185 181 182 186 185 185 186 182 184 201 231 272 302 321 330 335 337 337 337 334 327 320 314 309 306 303 300 298 295 294 294 293 292 291 290 289 287 285 282 279 276 274 271 268 265 264 263 263 262 263 264
250 242 232 220 210 202 197 191 186 184 183 182 181 178 177 180 180 179 181 184 193 217 262 298 318 330 335 338 338 337 336 333 326 320 314 310 307 304 302 300 296 295 293 292 291 289 288 287 285 284 283 280 278 276 272 270 267 265 263 261 261 263 266
243 230 219 209 200 193 189 186 183 180 177 175 177 177 176 177 176 175 177 188 207 243 288 306 322 333 336 338 337 337 336 332 326 320 314 311 308 305 304 301 298 295 293 290 289 288 286 285 283 282 282 281 280 278 274 271 269 267 265 265 264 265 266
233 219 208 200 192 188 185 182 178 175 172 171 172 173 171 169 168 169 171 182 228 270 289 308 323 329 334 337 339 339 337 332 325 319 314 311 308 306 305 304 300 296 293 290 289 289 287 285 283 282 282 283 282 279 276 274 272 269 268 268 267 266 266
225 211 199 192 188 184 181 178 174 171 170 167 164 163 161 156 151 149 144 159 247 288 307 315 319 324 330 337 341 341 338 332 324 317 313 311 309 306 305 305 301 294 290 289 288 287 286 284 283 282 282 283 281 279 277 277 275 273 271 270 270 268 267
214 199 186 180 176 170 166 165 163 162 161 157 153 152 151 144 138 135 134 165 274 307 315 314 314 317 328 338 342 342 338 331 322 316 312 310 308 305 303 301 297 290 288 287 286 284 283 282 281 280 280 280 279 277 279 280 277 276 275 273 271 269 268
200 189 180 173 163 149 139 140 143 144 144 145 145 144 142 134 127 131 142 275 302 304 306 309 310 314 326 338 340 338 335 329 321 316 310 307 305 302 298 295 293 291 290 289 288 286 283 281 279 278 277 275 274 277 281 281 278 278 278 275 271 269 267
182 173 165 156 148 142 138 135 135 135 136 139 141 139 137 131 123 127 282 304 304 301 302 307 311 316 326 335 337 334 329 325 321 314 307 303 301 297 295 294 293 293 292 291 290 288 285 282 279 277 274 271 272 275 278 278 277 278 276 273 271 267 265
157 149 142 136 133 135 136 137 139 141 142 144 144 144 146 144 133 338 307 308 308 308 309 311 315 319 325 331 333 329 324 321 320 313 305 302 299 296 295 295 293 293 293 292 291 289 286 284 281 277 275 273 273 274 274 274 274 274 272 270 268 265 262
141 137 135 132 129 130 133 135 141 146 147 148 150 150 149 144 118 323 318 317 317 317 318 319 320 322 325 328 329 325 320 319 318 313 307 303 300 298 297 296 295 296 296 295 292 290 288 285 282 279 277 276 275 274 273 272 270 268 267 266 264 262 260
134 133 132 130 128 132 139 143 147 149 148 148 150 148 140 117 339 327 323 324 327 328 327 326 324 323 325 326 325 322 319 318 318 317 312 307 303 301 301 300 300 300 298 296 294 292 290 287 283 281 278 276 274 272 269 267 264 263 262 260 257 257 256
Height
809 810 811 813 814 815 816 817 817 818 818 818 819 819 820 820 820 820 821 821 821 821 822 821 822 822 822 822 822 822 821 822 822 822 823 823 823 824 824 824 824 825 826 826 827 827 827 826 824 823 823 824 824 825 825 826 826 826 827 827 827 827 827
810 811 811 812 813 814 816 817 817 818 818 819 819 820 820 821 821 821 821 822 822 822 822 822 822 822 822 822 822 822 822 822 822 823 823 823 824 824 824 824 824 825 826 827 827 827 826 826 825 823 823 823 823 823 824 824 824 825 825 825 825 825 825
809 810 811 812 813 814 815 817 817 818 818 819 819 820 820 821 821 822 822 822 822 823 823 823 823 823 822 822 822 822 822 822 823 823 824 824 825 825 825 825 825 825 826 827 827 827 826 826 825 824 824 824 823 822 822 822 823 823 823 823 823 823 823
809 810 810 811 812 813 815 816 817 818 818 819 819 820 820 821 822 822 822 823 823 823 823 823 823 823 823 823 823 823 823 823 823 824 824 825 825 825 825 826 826 826 826 827 827 827 827 826 825 825 824 824 824 822 822 822 821 821 821 821 821 821 821
808 808 809 810 811 812 814 815 816 817 818 818 819 820 820 821 821 822 822 823 823 823 823 823 823 823 823 823 823 823 824 824 824 824 825 825 825 825 825 826 826 826 826 827 827 827 826 826 826 825 824 824 823 821 821 820 819 819 819 819 819 819 819
807 807 808 809 810 811 812 814 815 816 817 818 819 819 820 821 821 822 822 822 823 823 823 823 824 823 823 823 823 824 824 824 824 824 825 825 825 825 825 825 826 826 826 826 826 826 826 826 826 825 824 824 823 821 820 819 818 817 817 817 817 817 817
805 806 807 808 809 810 811 812 813 815 816 817 818 819 820 820 821 821 822 822 823 823 823 823 824 824 824 824 824 824 824 824 824 824 824 825 825 825 825 825 825 826 826 826 826 826 826 826 825 825 824 823 822 820 819 818 817 817 815 815 815 815 815
804 805 806 807 808 808 809 811 812 813 815 816 817 818 819 819 820 821 821 822 822 822 823 823 823 824 824 824 825 825 825 825 825 825 825 824 825 825 825 825 825 825 825 825 826 826 825 825 825 824 824 823 822 820 818 817 817 816 814 813 813 813 813
802 803 804 805 806 807 808 809 810 812 813 814 816 816 817 818 819 820 820 821 821 822 822 822 823 823 824 824 825 825 825 825 825 825 825 825 825 825 825 825 825 825 825 825 825 825 825 825 824 824 823 823 822 820 818 817 815 814 813 812 812 811 811
800 801 802 803 804 806 807 808 809 810 811 813 814 815 816 817 818 819 819 820 820 821 821 821 822 822 823 823 824 824 825 825 825 825 825 825 825 825 825 825 825 825 825 825 824 824 824 824 824 824 823 823 822 821 819 817 814 812 812 812 811 810 810
798 799 800 802 803 804 805 806 807 808 809 811 812 813 814 815 816 817 818 818 819 819 820 820 821 821 822 823 823 823 824 824 824 825 825 825 825 825 825 825 825 825 825 824 824 824 823 823 822 822 822 822 821 820 819 817 813 810 810 810 810 809 808
797 798 799 800 801 802 803 804 805 806 808 809 810 811 812 813 815 816 816 817 817 818 819 819 820 820 821 822 822 822 823 823 823 823 824 824 824 824 824 824 824 824 824 824 823 823 822 822 821 820 820 820 819 819 818 817 813 809 809 809 808 808 807
795 797 798 799 800 800 801 802 803 804 806 807 808 809 810 812 813 814 815 815 816 816 817 818 818 819 820 821 821 821 822 822 822 822 822 822 822 822 822 822 823 823 823 822 822 822 821 820 820 819 818 818 818 817 817 816 813 808 807 808 807 807 806
793 795 796 797 798 798 799 800 801 803 804 805 807 807 809 810 811 813 813 814 815 815 816 817 817 818 819 819 820 820 821 821 821 821 821 821 821 820 820 820 820 821 820 820 820 820 819 819 818 818 817 816 816 816 815 814 812 807 804 805 806 805 805
790 791 793 794 795 796 797 798 799 801 802 803 805 806 808 809 810 811 812 813 813 814 815 815 816 816 817 818 819 819 819 820 820 820 820 820 820 819 819 818 818 818 818 818 817 817 817 817 816 816 815 815 814 814 814 813 812 809 804 802 803 803 803
787 788 789 790 791 792 794 795 797 798 800 802 804 805 807 808 809 810 811 812 812 813 814 814 815 815 816 816 817 817 818 818 818 819 819 819 818 818 817 817 817 816 816 815 815 815 815 814 814 814 813 813 812 812 812 811 810 809 805 801 801 801 801
784 786 787 787 788 790 791 793 794 796 798 799 801 803 805 807 808 809 810 811 812 812 813 813 814 814 815 815 815 815 816 816 816 817 817 817 817 817 816 816 815 815 814 813 812 812 812 812 812 811 811 811 810 810 810 809 809 808 806 802 800 800 800
780 781 783 784 785 787 788 790 792 793 796 797 799 801 803 805 806 807 809 810 811 812 812 813 813 813 814 814 814 814 814 814 815 815 815 815 815 815 814 814 814 813 813 812 811 810 810 810 809 809 808 808 808 808 807 807 806 806 805 802 798 797 797
777 777 778 780 781 783 785 786 788 791 793 795 797 799 801 802 804 806 807 808 809 810 811 812 812 813 813 813 813 813 813 813 813 813 813 813 812 812 812 811 811 811 810 810 809 808 808 808 807 807 806 806 806 806 805 804 804 803 802 801 798 795 795
775 775 776 777 778 780 780 781 784 787 790 792 795 797 799 801 802 804 805 807 808 809 810 811 811 811 812 812 812 812 811 811 811 811 810 810 810 809 809 808 808 807 807 807 806 806 805 805 805 804 804 804 803 803 802 802 802 801 800 799 797 794 792
774 775 776 777 777 778 779 780 781 783 786 789 792 795 797 799 801 802 804 805 806 807 808 809 810 810 810 810 810 810 810 809 809 808 808 807 807 806 806 805 805 804 804 804 803 803 803 802 802 801 801 801 801 800 800 799 799 798 798 796 795 793 791
771 773 774 774 775 776 779 782 784 785 787 788 791 794 796 797 799 801 802 804 805 806 807 808 808 808 808 808 808 808 808 808 807 806 805 805 804 803 802 802 801 801 800 800 800 800 800 800 799 798 798 798 797 797 796 796 795 795 795 793 792 791 789
769 770 770 771 771 773 776 779 782 786 788 789 791 793 795 796 798 799 801 802 803 805 805 806 806 806 807 806 807 807 806 806 806 805 803 802 801 800 799 798 798 797 797 796 796 796 796 796 796 795 795 794 794 793 793 792 792 792 791 790 789 788 786
766 766 767 768 769 771 773 775 778 781 783 787 790 792 794 796 797 798 799 800 801 803 803 804 804 805 805 805 805 805 804 804 804 803 802 800 798 797 796 795 794 793 793 792 792 792 792 792 791 791 791 790 790 790 789 789 788 788 788 786 785 785 783
764 764 765 766 767 769 771 774 776 777 779 783 787 789 792 794 796 797 797 798 799 801 802 803 803 803 803 803 802 802 802 802 801 800 799 798 796 794 793 792 791 790 789 789 788 788 787 787 787 786 786 785 785 785 785 785 784 784 784 783 781 780 779
762 762 763 764 765 767 770 771 773 775 777 781 783 785 789 793 795 796 797 797 798 799 800 801 801 801 800 800 800 799 799 799 798 797 796 795 793 792 790 788 787 786 786 785 785 784 784 783 782 782 781 780 780 780 780 780 780 780 780 779 777 775 775
760 760 761 762 763 765 767 769 771 773 775 778 781 783 786 791 795 796 796 797 797 798 799 799 799 799 798 798 797 796 796 795 795 794 793 792 790 789 787 786 784 783 782 782 782 781 780 779 778 777 776 775 775 774 774 775 775 775 775 775 773 770 771
757 758 759 760 761 763 765 767 770 771 774 777 780 782 785 790 793 795 796 796 796 797 798 798 798 798 797 796 795 794 793 792 791 791 790 789 787 785 784 783 781 779 779 778 778 778 777 776 775 773 772 770 770 769 769 769 770 770 769 769 768 766 766
755 756 757 758 760 761 763 765 767 769 772 776 780 783 786 789 792 794 794 795 795 796 797 797 797 796 796 795 793 792 791 789 788 787 786 785 783 782 781 779 778 776 775 775 775 775 775 774 772 770 768 766 765 764 763 764 765 764 764 764 763 762 762
752 753 755 756 758 759 761 763 766 767 770 774 779 782 786 788 790 792 793 793 794 795 795 796 795 794 794 793 792 790 788 787 785 784 783 782 780 779 777 776 774 773 771 771 771 771 772 771 769 767 764 762 761 759 758 759 760 759 759 758 758 758 758
749 751 753 755 756 758 759 761 763 766 769 773 778 782 785 787 789 790 791 792 793 794 794 794 793 793 792 792 790 788 787 785 783 782 780 779 777 775 773 772 771 770 769 768 768 768 769 768 766 763 762 759 756 754 754 755 755 753 753 753 753 753 753
747 749 751 754 756 758 760 761 762 765 770 774 778 781 784 786 788 789 790 791 791 792 792 792 792 791 791 790 789 787 785 784 782 780 778 775 773 772 770 768 768 767 766 765 765 765 765 765 762 760 759 756 752 749 750 752 750 749 749 748 748 748 747
745 746 749 752 754 758 764 767 768 770 773 776 779 782 784 786 787 788 788 789 789 790 790 790 790 789 789 788 787 785 784 782 780 778 776 773 770 768 767 765 764 763 762 761 760 760 760 760 758 756 755 753 748 746 747 748 746 746 745 743 743 743 741
743 745 748 750 752 756 763 768 772 775 777 778 780 782 784 785 786 787 787 788 788 788 788 788 788 787 786 786 785 783 782 781 779 776 773 771 768 765 762 761 759 758 757 756 756 755 754 754 753 751 749 747 744 744 744 743 742 742 741 739 739 738 737
742 745 748 751 754 758 763 767 771 775 778 779 780 782 784 785 785 786 786 787 787 787 786 786 785 785 784 783 783 782 780 779 777 774 770 767 764 761 758 756 754 753 753 752 751 750 749 748 748 745 743 741 740 740 739 738 737 737 736 735 734 733 731
742 745 748 752 757 761 764 767 772 776 778 779 780 781 782 783 784 784 785 785 785 785 784 784 783 783 782 782 781 780 778 776 774 771 767 763 759 756 754 752 750 749 748 747 746 745 743 742 741 738 736 736 735 734 734 733 732 732 731 730 729 727 726
742 746 749 753 757 762 765 768 772 776 778 779 779 780 781 782 782 783 783 783 783 782 782 782 781 781 780 780 779 777 776 773 770 767 763 758 755 752 750 748 746 745 744 742 740 738 736 735 733 731 729 729 728 728 728 727 726 726 725 724 722 721 720